TimeCST,TemperatureF,Dew PointF,Humidity,Sea Level PressureIn,VisibilityMPH,Wind Direction,Wind SpeedMPH,Gust SpeedMPH,PrecipitationIn,Events,Conditions,WindDirDegrees,DateUTC
12:53 AM,62.1,59.0,90,30.23,10.0,ENE,3.5,-,N/A,,Mostly Cloudy,60,2013-11-22 06:53:00
1:53 AM,63.0,59.0,87,30.23,10.0,NE,3.5,-,N/A,,Overcast,50,2013-11-22 07:53:00
2:53 AM,62.1,59.0,90,30.22,10.0,ENE,4.6,-,N/A,,Mostly Cloudy,60,2013-11-22 08:53:00
3:53 AM,61.0,57.9,90,30.20,10.0,ENE,3.5,-,N/A,,Clear,70,2013-11-22 09:53:00
4:53 AM,61.0,57.9,90,30.22,9.0,NE,4.6,-,N/A,,Clear,50,2013-11-22 10:53:00
5:53 AM,60.1,57.0,90,30.24,6.0,Calm,Calm,-,N/A,,Partly Cloudy,0,2013-11-22 11:53:00
6:06 AM,60.1,57.9,93,30.25,7.0,Calm,Calm,-,N/A,,Mostly Cloudy,0,2013-11-22 12:06:00
6:42 AM,61.0,57.9,90,30.26,7.0,North,3.5,-,N/A,,Overcast,10,2013-11-22 12:42:00
6:53 AM,61.0,57.9,90,30.27,7.0,NNE,4.6,-,N/A,,Overcast,30,2013-11-22 12:53:00
7:00 AM,61.0,57.9,90,30.27,7.0,North,3.5,-,N/A,,Overcast,10,2013-11-22 13:00:00
7:38 AM,61.0,57.9,90,30.27,6.0,Variable,3.5,-,N/A,,Overcast,0,2013-11-22 13:38:00
7:53 AM,61.0,59.0,93,30.27,5.0,East,5.8,-,N/A,,Overcast,80,2013-11-22 13:53:00
8:53 AM,63.0,59.0,87,30.28,5.0,ENE,3.5,-,N/A,,Overcast,60,2013-11-22 14:53:00
9:48 AM,64.4,60.8,88,30.28,4.0,ENE,4.6,-,N/A,,Overcast,70,2013-11-22 15:48:00
9:53 AM,64.9,60.1,84,30.27,4.0,ENE,4.6,-,N/A,,Haze,70,2013-11-22 15:53:00
10:53 AM,66.9,61.0,81,30.25,10.0,East,4.6,-,N/A,,Overcast,80,2013-11-22 16:53:00
11:53 AM,68.0,62.1,81,30.23,10.0,ENE,4.6,-,N/A,,Overcast,60,2013-11-22 17:53:00
12:30 PM,70.0,62.1,76,30.22,10.0,North,-9999.0,-,N/A,,Overcast,0,2013-11-22 18:30:00
12:53 PM,71.1,63.0,75,30.22,8.0,Calm,Calm,-,N/A,,Overcast,0,2013-11-22 18:53:00
1:53 PM,72.0,63.0,73,30.20,7.0,Calm,Calm,-,N/A,,Overcast,0,2013-11-22 19:53:00
2:53 PM,72.0,64.0,76,30.20,10.0,Calm,Calm,-,N/A,,Overcast,0,2013-11-22 20:53:00
3:21 PM,72.0,64.0,76,30.21,10.0,Calm,Calm,-,N/A,,Overcast,0,2013-11-22 21:21:00
3:53 PM,71.1,64.0,78,30.20,10.0,Calm,Calm,-,N/A,,Overcast,0,2013-11-22 21:53:00
4:53 PM,69.1,64.0,84,30.18,10.0,Calm,Calm,-,N/A,,Mostly Cloudy,0,2013-11-22 22:53:00
5:04 PM,68.0,64.0,87,30.19,10.0,Calm,Calm,-,N/A,,Mostly Cloudy,0,2013-11-22 23:04:00
5:18 PM,66.9,64.0,90,30.19,10.0,Calm,Calm,-,N/A,,Mostly Cloudy,0,2013-11-22 23:18:00
5:53 PM,64.0,62.1,93,30.18,7.0,East,3.5,-,N/A,,Mostly Cloudy,100,2013-11-22 23:53:00
6:11 PM,64.0,62.1,93,30.18,7.0,Calm,Calm,-,N/A,,Partly Cloudy,0,2013-11-23 00:11:00
6:25 PM,64.0,62.1,93,30.17,1.5,ESE,3.5,-,N/A,,Partly Cloudy,110,2013-11-23 00:25:00
6:36 PM,64.9,62.1,90,30.17,4.0,SE,3.5,-,N/A,,Partly Cloudy,130,2013-11-23 00:36:00
6:53 PM,63.0,61.0,93,30.15,3.0,ESE,4.6,-,N/A,,Clear,120,2013-11-23 00:53:00
7:53 PM,63.0,61.0,93,30.16,2.5,Calm,Calm,-,N/A,,Clear,0,2013-11-23 01:53:00
8:00 PM,62.1,61.0,96,30.17,1.8,Calm,Calm,-,N/A,,Clear,0,2013-11-23 02:00:00
8:04 PM,63.0,60.1,90,30.18,3.0,NNW,3.5,-,N/A,,Clear,330,2013-11-23 02:04:00
8:34 PM,63.0,61.0,93,30.19,4.0,Calm,Calm,-,N/A,,Mostly Cloudy,0,2013-11-23 02:34:00
8:53 PM,64.9,63.0,93,30.20,6.0,NW,8.1,-,N/A,,Overcast,320,2013-11-23 02:53:00
9:06 PM,66.0,64.0,93,30.21,7.0,NW,9.2,-,N/A,,Overcast,320,2013-11-23 03:06:00
9:25 PM,66.0,63.0,90,30.20,7.0,NNW,4.6,-,N/A,,Overcast,340,2013-11-23 03:25:00
9:37 PM,66.0,63.0,90,30.20,7.0,North,4.6,-,N/A,,Overcast,350,2013-11-23 03:37:00
9:53 PM,66.0,63.0,90,30.19,7.0,North,4.6,-,N/A,,Overcast,350,2013-11-23 03:53:00
10:37 PM,66.9,64.0,90,30.20,8.0,Variable,4.6,-,N/A,,Overcast,0,2013-11-23 04:37:00
10:53 PM,66.9,63.0,87,30.19,7.0,North,4.6,-,N/A,,Overcast,360,2013-11-23 04:53:00
11:15 PM,66.9,63.0,87,30.20,7.0,NNE,3.5,-,N/A,,Overcast,20,2013-11-23 05:15:00
11:42 PM,66.0,63.0,90,30.19,7.0,Calm,Calm,-,N/A,,Overcast,0,2013-11-23 05:42:00
11:53 PM,66.0,64.0,93,30.18,7.0,Calm,Calm,-,N/A,,Overcast,0,2013-11-23 05:53:00